TimeEDT,TemperatureF,Dew PointF,Humidity,Sea Level PressureIn,VisibilityMPH,Wind Direction,Wind SpeedMPH,Gust SpeedMPH,PrecipitationIn,Events,Conditions,WindDirDegrees,DateUTC
12:53 AM,48.0,33.1,56,30.08,10.0,Calm,Calm,-,N/A,,Clear,0,2014-04-10 04:53:00
1:53 AM,48.0,34.0,58,30.08,10.0,South,4.6,-,N/A,,Clear,170,2014-04-10 05:53:00
2:53 AM,50.0,32.0,50,30.07,10.0,South,3.5,-,N/A,,Clear,180,2014-04-10 06:53:00
3:53 AM,48.0,32.0,54,30.06,10.0,South,3.5,-,N/A,,Clear,190,2014-04-10 07:53:00
4:53 AM,48.0,32.0,54,30.06,10.0,SSE,3.5,-,N/A,,Clear,160,2014-04-10 08:53:00
5:53 AM,48.9,32.0,52,30.06,10.0,South,5.8,-,N/A,,Clear,170,2014-04-10 09:53:00
6:53 AM,48.9,32.0,52,30.06,10.0,SSE,5.8,-,N/A,,Clear,160,2014-04-10 10:53:00
7:53 AM,50.0,33.1,52,30.08,10.0,South,6.9,-,N/A,,Clear,170,2014-04-10 11:53:00
8:53 AM,53.6,33.8,47,30.08,10.0,South,6.9,-,N/A,,Clear,180,2014-04-10 12:53:00
9:53 AM,57.2,35.6,44,30.06,10.0,South,12.7,20.7,N/A,,Clear,170,2014-04-10 13:53:00
10:53 AM,64.9,37.9,37,30.06,10.0,SSW,10.4,-,N/A,,Clear,200,2014-04-10 14:53:00
11:53 AM,68.0,39.0,35,30.04,10.0,South,12.7,21.9,N/A,,Clear,190,2014-04-10 15:53:00
12:53 PM,72.0,37.9,29,30.00,10.0,SSW,19.6,26.5,N/A,,Clear,200,2014-04-10 16:53:00
1:53 PM,73.9,39.0,28,29.97,10.0,SSW,17.3,25.3,N/A,,Clear,200,2014-04-10 17:53:00
2:53 PM,75.9,39.9,27,29.95,10.0,SSW,12.7,25.3,N/A,,Clear,200,2014-04-10 18:53:00
3:53 PM,77.0,41.0,28,29.92,10.0,SSW,16.1,26.5,N/A,,Clear,200,2014-04-10 19:53:00
4:53 PM,79.0,41.0,26,29.89,10.0,SSW,15.0,25.3,N/A,,Clear,200,2014-04-10 20:53:00
5:53 PM,78.1,39.9,25,29.89,10.0,SSW,15.0,27.6,N/A,,Clear,200,2014-04-10 21:53:00
6:53 PM,77.0,41.0,28,29.90,10.0,South,13.8,23.0,N/A,,Clear,190,2014-04-10 22:53:00
7:53 PM,75.9,41.0,29,29.91,10.0,South,9.2,-,N/A,,Clear,180,2014-04-10 23:53:00
8:53 PM,73.9,39.9,29,29.93,10.0,South,10.4,18.4,N/A,,Clear,190,2014-04-11 00:53:00
9:53 PM,72.0,41.0,33,29.95,10.0,South,10.4,-,N/A,,Clear,180,2014-04-11 01:53:00
10:53 PM,70.0,41.0,35,29.96,10.0,South,10.4,-,N/A,,Clear,180,2014-04-11 02:53:00
11:53 PM,68.0,41.0,37,29.97,10.0,South,8.1,-,N/A,,Clear,190,2014-04-11 03:53:00